STARLINK-11288 [DTC]

Last updated on Sun Oct 06 2024 00:02:04 GMT+0000 (Coordinated Universal Time)

1 61002U 24158N 24279.39824935 .00007880 00000+0 56145-4 0 9993 2 61002 53.1593 326.3456 0001719 120.3795 239.7395 15.74979914 5864
UTC large
Height (km)
Speed (km/s)
/
Latitude / Longitude
Inclination (degrees)
Orbital Period (minutes)
Azimuth
Elevation
Range (km)
Doppler Factor

Next 0 passes for location: London (51.5072 / 0.1276)

Sorry there are no passes over London.